Tracking 23758 objects as of 28-Oct-2021
HD Live streaming from Space Station
objects crossing your sky now

CZ-2D DEB

Track CZ-2D DEB now!
10-day predictions


NORAD ID: 28785
Int'l Code: 2005-024G
Perigee: 488.8 km
Apogee: 603.8 km
Inclination: 97.9 °
Period: 95.4 minutes
Semi major axis: 6917 km
RCS: 0.0162 m2 (small)
Launch date: July 5, 2005
Source: People's Republic of China (PRC)
Launch site: Jiuquan Satellite Launch Center, China (JSC)

Note: This is SATELLITE DEBRIS
aabbcc
Your satellite tracking list
Your tracking list is empty




NASA's NSSDC Master Catalog

Two Line Element Set (TLE):
1 28785U 05024G   21300.49412941  .00011244  00000-0  65922-3 0  9990
2 28785  97.8641 126.2988 0083088 184.4563 175.5935 15.09025040877598
Source of the keplerian elements: AFSPC